Theta_e
302 301 302 303 302 302 303 304 304 304 306 307 312 316 317 317 314 323 324 327 327 327 325 326 331 331 328 332 317 317 320 325 326 326 326 324 324 327 330 330 330 330 333 332 333
303 301 301 303 303 309 305 304 304 304 304 306 309 314 316 317 316 325 321 324 327 327 327 325 329 330 329 329 320 317 319 324 325 324 322 324 324 327 329 329 330 330 330 331 331
308 303 301 301 302 311 312 312 304 304 305 306 308 310 313 317 320 317 316 322 326 326 326 324 327 329 327 326 324 318 318 321 326 327 324 321 324 327 327 326 329 330 330 332 331
309 305 303 301 301 302 310 312 310 304 305 306 308 310 313 318 317 322 318 318 327 323 322 321 323 329 324 326 322 322 321 319 322 323 322 321 324 325 327 328 329 329 329 330 329
309 308 304 302 301 301 301 304 307 307 306 307 308 311 314 317 316 322 322 323 327 323 324 323 325 327 326 324 323 322 322 321 320 320 321 318 322 325 325 327 327 329 329 328 326
309 308 307 303 302 301 301 302 306 309 307 308 308 311 313 316 316 315 318 323 326 320 320 322 324 326 323 322 325 324 323 322 321 320 318 316 318 322 325 326 325 329 329 328 325
309 309 307 306 303 301 301 302 305 309 307 308 309 312 314 314 316 318 317 319 324 319 319 321 323 326 323 321 321 322 325 323 324 322 318 316 315 317 324 324 327 330 329 329 327
309 309 308 305 305 302 301 303 304 306 307 309 310 313 313 313 314 317 318 320 322 322 321 320 321 324 323 322 322 323 323 326 324 323 317 315 319 315 320 323 329 330 329 329 327
308 309 308 306 306 303 301 303 305 308 309 309 312 313 313 313 314 316 317 320 320 321 322 323 323 324 322 324 323 325 326 326 324 323 323 315 315 316 319 321 325 330 329 328 327
308 309 309 307 306 304 302 304 308 309 308 309 310 311 312 313 313 314 317 319 319 320 322 324 324 324 325 326 329 324 326 326 327 325 325 321 316 315 317 317 320 327 329 329 328
310 308 309 306 306 304 304 307 308 308 309 309 309 310 313 313 314 315 317 318 318 318 321 318 323 325 326 325 325 324 326 327 326 325 327 326 316 316 316 315 321 322 327 329 328
311 308 309 307 306 304 305 306 306 306 307 308 310 309 311 313 314 315 316 317 317 318 318 317 322 321 320 325 326 326 326 327 326 326 324 322 320 316 315 315 318 321 323 327 328
312 309 308 307 306 304 305 305 304 307 306 307 305 309 311 311 314 314 315 316 317 317 318 319 320 319 323 324 327 327 327 329 329 320 325 318 320 318 316 318 318 319 320 323 326
310 310 308 308 307 305 305 305 306 306 296 303 308 309 308 310 312 313 314 315 316 318 317 318 317 320 322 325 325 327 324 325 326 326 331 323 334 327 322 319 316 316 318 320 323
312 310 308 307 307 306 305 305 306 302 291 300 307 307 309 310 310 313 313 315 316 313 316 317 317 320 321 322 322 325 324 326 326 329 328 322 328 329 325 326 322 317 316 319 321
306 311 308 307 306 306 304 303 304 295 293 308 311 311 310 310 312 313 314 315 312 312 309 311 309 314 317 314 318 319 321 318 318 325 327 328 326 325 326 327 324 320 317 319 319
305 310 307 307 306 305 303 305 301 292 298 309 310 311 310 311 310 312 313 313 312 312 312 307 310 309 310 314 313 319 321 322 323 322 327 323 326 328 321 319 324 322 316 317 318
310 309 307 306 305 303 305 300 291 294 301 308 310 311 313 312 312 312 311 312 311 314 314 315 313 310 310 316 317 319 321 322 326 324 322 316 328 327 320 324 317 324 322 319 317
302 310 307 305 304 304 304 302 296 296 306 309 309 309 312 313 313 314 313 311 310 312 318 317 316 309 310 310 314 314 318 316 318 311 314 314 311 312 312 311 312 312 319 319 317
302 308 304 304 303 304 303 300 301 304 306 307 303 305 305 311 313 311 313 312 313 312 314 315 315 311 309 310 310 314 314 318 316 321 322 316 312 319 314 313 309 309 310 314 316
301 302 303 304 305 304 304 302 302 306 305 303 303 307 310 310 311 311 313 312 312 312 314 314 313 310 310 312 314 312 315 316 316 318 321 314 313 309 314 314 310 308 311 313 313
300 303 304 305 305 304 303 301 304 305 304 304 304 304 304 308 310 311 314 313 313 314 316 315 311 310 312 309 310 311 314 314 321 319 312 311 312 307 307 309 309 308 310 312 313
300 305 304 305 306 304 302 303 302 302 303 302 304 305 305 306 305 308 310 311 313 315 316 313 311 312 313 312 309 312 313 317 315 312 312 313 313 306 305 307 308 308 309 310 310
300 305 306 305 303 303 303 303 302 303 304 302 302 304 305 306 306 306 309 307 310 311 314 314 312 314 313 313 312 314 313 314 317 316 314 311 313 307 306 306 307 308 309 309 309
300 303 301 304 303 303 302 303 302 302 303 303 303 304 304 303 306 306 307 308 309 310 310 315 314 314 310 311 312 313 313 313 317 315 316 313 311 311 305 305 306 308 308 308 309
300 302 302 301 302 302 302 302 302 302 303 304 302 304 304 303 304 304 308 309 310 312 314 314 313 314 313 312 313 313 313 313 315 315 313 313 313 311 309 308 307 308 308 308 309
301 303 304 303 302 302 301 302 302 301 302 304 303 303 303 304 303 304 306 306 306 307 306 311 310 312 317 311 313 315 313 313 314 315 314 315 313 312 308 306 307 308 309 309 310
Wind_Speed
27 27 27 26 24 24 23 22 20 17 15 13 15 13 10 11 13 16 23 19 22 20 11 17 18 16 18 15 9 8 1 4 5 6 8 3 2 1 7 18 9 9 14 7 31
27 28 27 26 25 21 24 22 19 17 15 12 12 12 10 11 13 19 24 21 16 20 20 17 23 19 12 7 5 5 3 5 4 9 6 11 11 9 6 13 6 12 10 14 30
27 28 28 28 27 22 21 20 21 18 15 12 10 11 9 10 8 21 23 22 23 16 17 17 17 20 13 14 2 11 3 6 11 17 15 10 12 10 11 4 15 23 21 23 29
30 27 28 28 27 27 24 20 18 18 16 12 10 9 10 8 6 6 12 23 24 21 20 19 18 15 8 9 13 4 15 13 14 25 25 6 8 8 16 8 18 20 23 28 30
33 29 28 28 27 26 25 24 20 17 15 12 10 9 11 12 18 2 2 17 26 26 25 23 22 15 7 8 14 10 7 15 23 28 27 16 11 9 21 18 11 23 26 27 28
37 33 29 28 27 26 23 21 19 17 16 12 11 12 15 16 11 22 16 9 27 27 27 25 18 21 9 9 15 18 12 13 14 25 27 8 11 8 15 21 14 29 29 27 28
40 37 33 28 27 26 23 21 20 18 16 13 11 15 20 21 7 7 17 18 21 27 22 26 23 20 12 5 7 8 8 6 14 14 25 14 9 8 20 20 23 33 33 30 28
41 40 36 31 27 26 23 20 20 17 16 14 12 15 12 14 25 13 12 18 17 26 28 22 23 17 9 15 5 4 3 4 5 12 13 10 16 15 25 24 30 34 32 30 29
44 43 38 33 30 26 23 21 18 16 15 13 13 11 9 10 24 22 18 20 23 25 26 30 23 16 13 8 5 6 6 8 9 15 7 8 8 16 26 25 29 35 33 32 29
48 44 41 34 32 27 24 21 18 18 15 13 9 4 17 12 14 29 23 19 22 20 18 13 15 6 9 10 17 7 4 5 11 8 15 13 21 17 15 33 31 36 36 33 32
52 47 43 37 35 30 29 26 17 8 24 13 13 6 4 13 16 18 25 22 19 13 12 5 9 13 21 20 2 8 7 14 11 8 15 21 19 19 27 21 24 29 33 36 36
56 51 46 41 39 35 34 36 30 8 7 26 13 26 11 6 9 16 22 19 16 15 9 3 17 17 18 16 17 8 14 11 5 9 8 10 22 22 15 13 32 36 37 39 40
58 55 51 44 41 38 39 33 26 11 3 7 33 26 15 18 10 22 25 24 8 18 15 19 11 14 14 19 11 12 14 11 6 2 7 3 14 21 10 25 30 37 39 42 45
66 59 55 48 43 44 43 31 22 16 4 5 11 13 27 16 10 23 24 17 7 14 23 15 19 8 10 12 20 21 14 16 17 8 7 10 8 20 20 16 18 33 39 41 41
60 64 60 58 44 49 44 38 22 17 1 7 9 9 20 19 12 19 28 22 9 3 8 12 14 22 12 12 7 5 6 18 16 15 8 5 6 13 11 22 23 26 37 48 45
12 65 60 54 41 46 41 35 27 5 8 5 9 12 13 22 1 11 18 11 6 6 7 4 3 3 8 3 6 6 5 5 5 1 7 17 13 7 16 24 23 24 40 49 49
26 67 67 60 51 49 47 43 5 6 4 9 9 11 15 12 14 8 11 11 8 5 6 1 2 2 3 7 3 4 7 2 3 4 7 11 11 18 9 9 22 24 36 47 50
30 68 68 60 52 57 55 11 5 7 6 3 8 14 13 11 13 15 10 14 15 6 4 9 4 9 5 5 6 16 11 5 6 5 3 7 12 13 18 31 13 34 41 46 50
34 65 64 58 61 66 45 16 10 8 9 11 12 12 5 8 4 14 20 19 15 19 9 7 7 6 7 1 5 5 6 8 5 1 2 6 7 9 5 7 8 10 26 35 41
34 47 51 64 68 59 21 12 6 7 9 11 7 5 8 9 9 9 11 14 16 23 14 7 5 6 4 1 3 3 10 6 2 5 5 5 5 7 10 12 8 8 17 23 25
33 20 52 64 67 44 20 13 6 9 13 6 6 7 7 9 10 5 5 6 26 20 19 3 1 5 7 8 12 5 5 4 7 3 3 2 6 6 12 15 12 9 22 24 22
19 5 64 69 16 12 15 12 9 9 10 4 5 5 5 9 8 11 9 8 28 21 27 12 4 5 9 1 6 1 7 8 6 7 4 1 6 2 6 8 13 16 18 20 22
15 19 58 66 13 15 11 6 7 8 6 3 4 3 4 7 3 7 7 4 14 18 20 12 5 5 6 3 1 7 8 15 5 4 6 3 5 3 4 2 6 16 17 16 16
12 8 23 35 6 23 24 17 7 11 6 6 5 4 5 3 4 3 4 3 3 6 22 27 8 9 12 6 11 13 19 13 10 5 7 11 6 5 4 7 5 15 18 16 14
8 7 7 10 8 19 14 17 12 7 6 10 3 5 7 5 5 5 5 5 5 10 10 6 6 11 2 6 13 19 21 19 19 11 15 8 9 8 8 8 9 20 20 15 13
5 11 9 13 22 21 15 20 21 6 8 7 7 10 8 6 7 5 4 3 5 7 7 11 3 9 6 10 8 13 21 25 28 24 10 11 9 7 5 12 10 19 18 13 12
10 26 27 16 16 16 12 21 23 11 4 14 10 7 10 14 16 13 6 6 5 3 3 5 6 8 6 8 11 9 24 29 24 26 22 14 14 4 6 8 18 23 22 14 13
Wind_Direction
242 240 232 233 233 227 228 234 241 241 239 243 243 244 249 253 242 231 225 228 232 231 241 226 211 206 221 260 288 280 206 211 225 224 248 262 220 332 133 139 134 138 164 187 178
242 237 235 230 232 230 227 226 234 245 244 242 243 241 246 253 250 242 232 220 218 222 232 232 227 216 174 244 248 252 207 210 220 242 253 215 197 187 146 137 103 134 156 166 178
242 237 235 231 229 225 226 230 227 232 241 244 244 237 239 251 266 265 252 222 220 215 223 223 223 201 188 193 212 317 238 316 269 292 304 233 208 195 157 225 183 178 170 174 181
237 234 233 232 227 226 224 228 232 230 230 235 244 239 231 222 231 338 231 221 216 202 201 206 207 196 166 185 171 179 284 323 303 306 298 227 207 203 185 209 217 206 199 182 185
235 230 230 230 228 227 225 228 230 230 229 228 227 232 220 221 235 90 23 206 204 200 201 211 193 193 198 179 155 159 252 299 320 306 289 284 235 198 213 208 224 202 195 194 196
231 230 227 229 228 226 224 224 222 221 224 226 221 222 222 240 250 229 261 208 197 205 207 210 212 204 174 192 200 188 168 271 303 297 288 269 263 217 225 213 214 203 197 199 205
230 228 224 224 225 224 218 217 217 219 221 221 223 223 226 227 231 222 227 237 210 199 202 209 212 204 172 137 152 130 163 299 283 282 284 264 280 233 229 209 196 193 196 200 205
228 225 223 220 219 221 212 210 213 217 215 214 220 226 235 245 230 232 226 217 214 213 213 203 212 209 173 136 100 130 129 234 239 247 236 258 259 239 222 190 190 192 197 201 206
225 222 222 219 217 212 205 203 203 203 203 202 205 215 245 242 222 225 216 228 216 213 213 214 209 192 157 160 146 212 202 200 262 225 272 222 274 242 223 210 204 200 201 204 207
222 219 218 214 211 203 195 191 185 191 185 185 199 203 235 223 223 224 207 213 205 212 208 209 192 195 183 205 208 165 160 187 221 205 232 257 246 272 254 216 209 203 205 208 208
219 214 212 208 204 195 182 167 158 187 189 187 193 196 55 191 216 201 200 203 204 205 209 196 231 215 207 207 230 173 187 199 206 214 199 232 260 253 252 223 206 202 202 210 216
215 212 206 203 200 192 190 182 181 180 186 213 215 212 213 195 185 195 200 190 185 210 189 179 225 220 230 215 205 178 188 222 289 217 185 222 244 255 245 228 211 206 210 213 219
218 208 202 199 196 192 194 191 195 167 120 218 223 218 208 213 215 207 186 201 214 201 203 220 243 213 205 217 227 203 199 188 187 66 217 320 250 249 240 231 224 219 217 216 216
209 206 197 191 188 194 195 177 175 179 61 250 193 224 209 206 242 215 204 191 218 231 211 234 222 211 184 196 209 230 218 238 239 232 251 183 265 234 231 234 219 220 221 220 215
198 201 192 189 181 184 186 177 155 148 90 211 174 184 188 179 145 196 202 201 208 218 196 200 190 197 219 204 179 201 170 220 226 230 227 216 249 259 234 226 227 217 216 220 217
247 190 189 183 182 180 174 164 161 65 237 167 147 168 160 199 163 136 177 175 139 142 322 133 267 225 171 89 171 105 74 54 57 318 234 209 207 210 220 225 221 217 214 217 216
251 190 188 179 173 175 160 159 136 161 249 177 171 172 177 179 208 173 188 179 164 142 175 45 117 280 170 101 40 136 141 153 201 186 238 202 212 236 224 237 215 209 208 213 216
169 190 185 177 170 162 158 150 131 201 189 170 160 162 184 166 195 186 170 209 207 163 161 181 205 185 191 180 176 175 196 160 190 196 247 117 233 235 233 238 240 220 209 211 214
224 177 172 168 169 162 155 180 193 185 145 148 149 175 199 176 152 188 199 212 198 189 192 178 204 181 197 149 163 150 199 130 99 312 304 216 263 304 246 231 211 204 200 205 214
220 172 167 166 167 160 160 181 176 175 130 148 142 167 173 167 167 185 178 204 208 199 193 214 175 213 132 114 37 154 143 92 125 198 224 258 264 221 213 219 226 202 194 184 199
211 166 161 167 162 160 179 179 160 173 153 141 147 144 165 174 191 187 212 238 202 192 203 150 195 160 144 206 174 155 161 148 124 213 229 285 253 216 205 217 197 204 209 197 191
184 162 159 164 162 174 175 166 136 153 115 99 93 107 138 170 177 208 214 233 205 193 197 183 121 170 195 43 233 3 189 165 165 181 248 307 274 347 290 230 175 184 200 207 208
154 127 164 164 166 170 148 170 147 154 132 117 119 145 158 157 170 197 207 252 214 207 190 161 171 137 138 128 23 210 201 202 102 102 197 189 264 337 360 13 148 163 178 190 201
171 140 162 179 184 163 155 175 139 155 122 115 134 137 111 151 245 209 210 277 191 258 271 178 179 189 191 189 151 192 192 211 182 159 173 214 299 268 248 219 171 178 179 180 196
189 141 131 154 145 160 149 168 164 148 126 125 184 160 149 174 192 216 229 254 247 229 219 260 201 191 146 146 169 186 187 185 198 189 191 188 203 257 225 216 190 179 171 183 192
154 148 133 145 154 155 165 184 175 135 136 164 121 185 182 191 177 164 233 185 247 330 214 214 252 173 206 163 143 179 185 188 203 201 221 253 272 228 223 192 181 179 187 207 201
147 144 139 156 155 158 181 170 181 134 70 158 171 150 204 228 237 253 264 261 237 273 319 308 178 178 213 167 145 195 189 201 206 202 196 212 217 198 164 180 209 211 213 226 203